Lapse_Rate
5.5 5.5 5.6 5.7 5.7 5.7 5.7 5.6 5.4 5.4 5.4 5.4 5.4 5.2 5.3 5.4 5.4 5.5 5.7 5.8 5.9 5.9 5.9 5.9 6.1 6.2 6.2 6.3 6.5 6.5 6.4 6.5 6.8 6.8 6.6 6.6 6.6 6.4 6.2 6.1 6.2 6.3 6.3
5.7 5.6 5.5 5.6 5.6 5.7 5.6 5.4 5.3 5.5 5.2 5.4 5.3 5.5 5.3 5.2 5.2 5.2 5.4 5.5 5.6 5.8 5.9 5.7 6.0 6.1 6.1 6.1 6.1 6.3 6.4 6.4 6.5 6.7 6.6 6.6 6.5 6.4 6.1 6.1 6.1 6.1 6.2
5.6 5.7 5.6 5.7 5.6 5.5 5.5 5.5 5.5 5.4 5.2 5.1 5.5 5.4 5.2 5.2 5.1 5.1 5.1 5.3 5.5 5.4 5.6 5.7 5.7 6.0 6.1 6.2 6.3 6.1 6.1 6.2 6.3 6.5 6.5 6.5 6.4 6.3 6.1 6.0 5.8 5.9 6.0
5.5 5.6 5.7 5.7 5.6 5.5 5.5 5.4 5.5 5.4 5.4 5.4 5.4 5.4 5.3 5.2 5.0 5.2 5.4 5.2 5.4 5.3 5.2 5.3 5.6 5.9 6.2 6.2 6.2 6.2 6.1 6.2 6.1 6.1 6.3 6.4 6.3 6.3 6.2 6.0 5.8 5.8 5.8
5.6 5.6 5.6 5.7 5.7 5.6 5.5 5.4 5.4 5.3 5.3 5.3 5.6 5.2 5.4 5.2 5.3 5.3 5.0 5.3 5.2 5.2 5.1 5.2 5.2 5.4 5.8 6.0 5.9 5.9 5.9 5.9 6.0 6.0 6.1 6.2 6.2 6.3 6.2 6.1 5.8 5.7 5.7
5.7 5.6 5.6 5.6 5.6 5.7 5.5 5.5 5.4 5.4 5.2 5.3 5.3 5.3 5.3 5.3 5.3 5.3 5.3 5.2 5.0 5.0 5.0 5.2 5.3 5.3 5.4 5.7 5.9 5.8 5.8 5.8 5.9 6.1 6.0 6.1 6.1 6.2 6.1 6.1 6.0 5.8 5.7
6.0 5.9 5.8 5.8 5.6 5.4 5.3 5.5 5.4 5.3 5.1 5.1 5.2 5.3 5.4 5.2 5.1 5.1 5.1 5.2 5.1 5.0 5.2 5.1 5.2 5.1 5.2 5.4 5.6 5.7 5.7 5.7 5.8 6.0 5.9 6.0 6.2 6.2 6.1 6.0 5.9 6.0 5.8
6.1 6.1 6.1 5.9 5.9 5.8 5.7 5.5 5.4 5.3 5.2 5.3 5.1 5.2 5.2 5.3 5.2 5.2 5.1 5.2 4.9 5.0 5.0 5.1 5.1 5.2 5.2 5.3 5.4 5.6 5.7 5.8 5.7 5.9 5.9 5.9 6.1 6.1 6.1 6.0 6.0 5.9 5.9
6.3 6.3 6.2 6.0 6.1 6.1 5.9 5.9 5.7 5.5 5.5 5.3 5.0 5.2 5.3 5.3 5.3 5.2 5.2 5.2 5.2 5.1 5.1 5.0 5.1 5.1 5.0 5.2 5.1 5.3 5.5 5.6 5.7 5.8 6.0 6.0 6.1 6.0 6.0 5.9 6.0 6.0 5.9
6.5 6.5 6.4 6.2 6.1 6.1 6.0 5.9 5.8 5.7 5.6 5.3 5.2 5.2 5.3 5.2 5.3 5.3 5.2 5.2 5.1 5.0 5.0 5.1 5.1 5.1 5.1 4.9 5.0 5.1 5.4 5.6 5.8 5.8 6.0 6.0 6.0 5.9 5.8 5.8 5.9 5.9 6.0
6.9 6.7 6.6 6.6 6.3 6.2 6.0 5.9 5.8 5.6 5.6 5.5 5.2 5.5 5.5 5.5 5.4 5.5 5.6 5.1 5.1 5.0 5.2 5.1 5.3 5.2 5.1 5.2 5.0 5.1 5.5 5.6 5.8 5.8 5.9 6.0 6.0 5.9 5.8 5.7 5.7 5.8 5.8
7.0 6.9 6.7 6.6 6.4 6.2 6.0 5.8 5.8 5.8 5.7 5.6 5.5 5.5 5.5 5.5 5.5 5.5 5.7 5.4 5.5 5.3 5.1 5.3 5.2 5.2 5.2 5.2 5.1 5.3 5.5 5.7 6.0 6.0 6.0 6.0 6.1 5.9 5.8 5.7 5.6 5.6 5.7
6.7 6.6 6.5 6.5 6.3 6.3 6.1 6.0 6.0 6.0 5.8 5.8 5.7 5.6 5.6 5.7 5.7 5.6 5.7 5.6 5.5 5.4 5.3 5.3 5.3 5.2 5.2 5.3 5.4 5.3 5.5 5.5 5.8 5.9 5.9 6.0 6.0 5.9 5.7 5.6 5.6 5.5 5.6
6.3 6.3 6.5 6.5 6.4 6.3 6.4 6.2 6.2 6.1 5.9 5.9 5.9 5.8 5.8 5.9 5.7 5.6 5.8 5.6 5.8 5.5 5.4 5.4 5.5 5.2 5.4 5.3 5.4 5.3 5.6 5.6 5.7 5.8 5.9 5.9 5.9 5.9 5.9 5.7 5.5 5.4 5.4
5.9 6.0 6.2 6.4 6.3 6.3 6.2 6.4 6.3 5.8 5.8 5.8 5.8 5.9 6.0 5.9 5.7 5.6 5.7 5.9 5.8 5.6 5.6 5.6 5.5 5.3 5.4 5.6 5.6 5.6 5.4 5.4 5.6 5.5 5.7 5.8 5.6 5.7 5.8 5.7 5.5 5.4 5.4
6.0 5.8 6.0 6.1 6.3 6.3 6.2 6.3 6.1 5.8 6.1 6.1 6.0 6.0 6.2 6.1 6.0 5.9 6.2 6.1 6.1 6.1 6.0 5.8 5.8 5.9 5.4 5.4 5.3 5.2 5.3 5.4 5.3 5.4 5.6 5.5 5.7 5.8 5.8 5.7 5.5 5.5 5.5
6.2 6.0 6.0 6.1 6.3 6.4 6.5 6.5 6.2 6.2 6.2 6.2 6.2 6.2 6.5 6.4 6.3 6.2 6.3 6.4 6.3 6.2 6.1 5.9 6.0 6.0 5.7 5.3 5.3 5.3 5.3 5.2 5.2 5.1 5.2 5.3 5.5 5.7 5.8 5.7 5.5 5.4 5.4
6.3 6.4 6.3 6.4 6.4 6.5 6.6 6.6 6.6 6.4 6.5 6.5 6.6 6.6 6.5 6.4 6.5 6.6 6.8 6.6 6.4 6.4 6.3 6.1 5.9 5.8 5.8 5.8 5.5 5.1 5.1 5.4 5.3 5.6 5.3 5.4 5.6 5.5 5.5 5.6 5.7 5.5 5.4
6.4 6.4 6.5 6.5 6.5 6.6 6.7 6.7 6.7 6.6 6.6 6.7 6.7 6.9 6.6 7.0 7.0 7.0 7.0 7.0 7.0 6.9 6.7 6.6 6.6 6.4 6.0 5.7 5.7 6.0 5.4 5.5 5.5 5.7 5.5 5.5 5.4 5.4 5.6 5.7 5.7 5.7 5.7
6.5 6.5 6.4 6.5 6.6 6.6 6.7 6.6 6.7 6.8 6.8 6.9 7.1 7.0 7.1 7.4 7.3 7.3 7.4 7.5 7.5 7.3 7.1 7.0 6.8 6.8 6.6 6.2 5.9 6.1 5.9 5.2 5.8 6.2 6.1 5.7 5.6 5.6 5.7 5.8 5.7 5.7 5.7
7.1 6.7 6.5 6.5 6.4 6.6 6.8 6.8 6.8 6.9 7.1 7.3 7.4 7.2 7.2 7.2 7.2 7.1 7.2 7.4 7.5 7.2 7.1 7.0 7.1 7.0 6.8 6.7 6.2 5.9 5.7 5.7 5.9 5.9 6.2 5.8 5.8 5.9 5.9 5.9 5.8 5.7 5.7
7.3 7.3 7.0 6.6 6.6 6.7 6.8 6.9 7.0 7.1 7.2 7.3 7.3 7.2 7.1 7.0 7.1 7.1 7.1 7.1 7.1 7.2 7.2 7.3 7.1 7.1 7.1 6.9 6.5 6.3 6.1 6.0 5.9 6.0 5.7 5.7 5.7 5.6 5.7 5.7 5.8 5.8 5.8
7.6 7.3 7.1 6.9 6.8 6.9 6.9 6.9 6.9 7.2 7.1 7.1 7.1 7.1 7.1 7.1 7.2 7.1 6.9 6.8 6.7 6.6 6.7 6.8 6.9 6.8 6.9 7.1 6.9 6.6 6.3 6.2 6.0 6.0 5.8 5.4 5.6 5.6 5.7 5.6 5.6 5.6 5.6
7.4 7.5 7.0 6.7 7.1 7.4 7.0 6.9 7.0 7.4 7.3 7.2 7.3 7.4 7.4 7.4 7.4 7.2 7.1 7.0 6.8 6.6 6.5 6.5 6.5 6.3 6.6 6.7 6.8 6.6 6.3 6.2 6.0 5.7 5.9 5.9 5.5 5.6 5.8 5.7 5.7 5.6 5.5
8.2 8.2 7.9 7.5 7.2 7.3 7.0 6.9 7.0 7.5 7.8 7.8 7.8 7.8 7.8 7.7 7.5 7.2 7.1 7.0 7.0 6.8 6.6 6.5 6.3 6.1 6.2 5.9 6.2 6.4 6.1 6.0 6.0 5.8 5.9 6.0 5.9 5.8 5.6 5.5 5.5 5.6 5.8
8.2 8.0 7.9 7.9 7.8 7.5 7.3 7.1 7.2 7.5 7.6 7.5 7.3 7.6 7.5 7.5 7.6 7.6 7.5 7.2 6.8 6.4 6.5 6.7 6.4 6.1 5.8 5.9 6.0 6.2 6.1 6.2 6.2 6.2 6.1 6.0 6.3 6.2 6.0 6.0 5.8 5.8 5.8
Wind_Speed
5 5 5 5 5 5 5 4 3 2 2 2 2 3 2 4 4 4 5 7 7 7 8 10 8 8 8 8 9 9 9 8 11 12 11 11 13 16 15 16 15 15 15
4 5 5 5 5 6 5 4 2 1 1 2 2 2 2 2 2 2 2 3 6 6 7 8 8 8 8 8 8 9 9 9 11 12 9 9 13 14 14 14 13 13 14
6 5 5 5 5 5 4 4 3 1 2 2 1 2 1 1 3 4 3 3 3 6 6 6 7 8 8 8 8 8 10 9 11 13 10 10 9 12 12 12 13 13 14
7 6 6 5 5 5 4 5 4 2 2 1 0 2 1 2 3 2 5 5 4 4 5 7 7 8 9 9 9 8 10 11 11 12 12 12 11 11 11 12 12 12 12
9 7 6 6 6 6 5 5 3 3 3 2 2 1 4 5 6 5 6 7 8 4 2 5 5 9 9 10 10 9 11 13 13 12 13 13 13 12 11 10 11 11 11
11 10 8 8 7 6 5 5 5 3 4 4 2 4 4 8 6 6 9 8 8 6 8 5 4 8 11 12 10 11 11 13 14 14 14 14 14 13 12 11 10 10 10
12 12 9 9 9 7 8 6 4 6 5 1 2 5 6 6 9 5 9 5 9 8 8 12 10 12 11 12 11 11 13 15 16 16 15 16 15 15 14 13 12 10 11
14 13 12 9 11 7 9 8 8 5 4 4 2 2 3 1 4 3 5 5 6 11 10 9 11 12 12 8 9 11 13 14 16 18 17 18 17 17 16 15 14 12 11
15 15 13 11 10 9 6 7 8 10 5 2 5 4 2 2 5 1 2 4 6 4 9 13 12 15 12 14 11 9 12 15 16 18 19 20 19 19 18 17 17 15 14
16 16 14 12 11 10 8 8 7 8 6 3 2 5 8 4 2 4 1 4 5 6 7 12 13 17 17 14 14 13 13 15 17 18 19 21 21 20 19 18 19 18 18
15 15 15 13 10 10 9 8 7 8 7 7 5 3 5 5 7 6 8 2 3 5 7 10 11 16 19 19 18 20 21 20 18 20 20 21 21 21 21 20 20 19 19
8 14 14 13 12 10 9 8 8 10 9 8 7 8 8 6 5 6 7 5 5 3 5 7 10 16 15 18 20 22 20 21 23 23 23 22 22 23 23 23 22 21 21
8 10 12 11 9 13 12 11 8 9 10 9 10 9 8 9 7 7 6 6 5 3 4 6 8 14 15 16 17 21 21 23 24 25 26 25 24 24 24 24 24 24 24
9 9 11 13 14 14 13 12 8 9 9 10 12 11 9 9 7 8 6 5 5 4 2 7 3 8 12 15 17 16 18 24 25 25 27 27 26 26 26 27 26 24 24
10 9 11 10 12 13 13 10 8 10 10 10 11 11 10 9 6 7 7 7 5 3 5 2 2 4 7 10 12 13 17 18 25 27 28 29 29 30 29 29 29 30 29
11 11 10 10 10 10 10 10 9 11 11 9 9 11 11 8 7 6 6 6 6 6 3 2 2 3 5 5 10 13 12 11 19 25 28 29 30 29 28 29 30 31 31
12 12 12 10 10 10 10 10 11 11 11 11 10 11 14 11 6 6 6 6 5 6 5 4 3 2 5 4 4 9 11 10 12 20 22 26 28 30 29 29 31 32 32
12 13 13 12 12 11 10 11 11 10 11 12 11 10 12 5 8 8 6 8 6 7 5 7 3 2 5 3 4 5 9 10 11 12 19 24 27 29 31 32 32 33 34
14 14 14 14 13 13 12 12 11 11 11 11 10 8 11 9 9 6 8 8 7 6 6 5 2 1 4 3 3 3 5 9 11 14 19 22 24 25 28 30 31 33 35
14 14 14 14 15 13 13 13 13 13 14 12 12 12 12 10 10 9 9 10 7 6 7 5 4 3 5 3 4 4 4 2 5 7 12 16 15 22 28 28 30 31 33
13 13 13 13 14 12 11 14 14 15 15 13 12 11 12 10 9 9 7 9 9 7 6 6 5 4 5 5 5 2 2 3 6 5 5 7 9 12 15 23 24 28 32
12 10 12 13 13 10 12 15 14 12 14 13 10 10 10 9 10 10 10 7 8 8 8 6 6 7 8 6 5 5 4 4 4 2 3 4 5 6 10 12 14 21 22
9 10 11 11 13 13 11 12 14 14 11 10 10 9 8 7 10 10 11 7 6 7 9 8 9 9 7 7 6 6 6 5 6 2 4 6 4 7 8 10 14 17 20
7 7 8 11 11 11 9 12 14 14 11 11 11 10 9 9 10 10 8 9 10 10 12 10 11 10 9 7 6 5 5 5 6 6 6 6 5 6 5 8 10 13 16
4 4 6 9 12 12 10 13 11 12 13 12 11 10 9 10 10 11 9 10 10 9 12 17 16 13 13 11 10 6 7 5 6 6 6 7 5 5 5 6 5 4 6
5 6 8 9 12 12 8 10 12 10 11 9 9 9 8 8 6 11 10 10 10 10 9 9 9 11 16 14 13 12 7 8 6 6 6 5 4 2 4 2 3 5 5
Wind_Direction
175 173 150 154 142 150 153 147 164 89 76 65 55 139 158 170 188 194 193 196 198 199 183 167 170 165 158 147 141 130 120 118 127 117 110 116 123 119 120 117 113 112 111
186 188 178 180 177 175 173 160 164 128 100 93 69 41 93 129 155 193 205 219 219 215 207 185 180 184 177 166 158 156 141 133 126 120 126 129 121 121 113 109 112 116 116
197 201 203 196 193 184 179 175 188 178 137 171 123 128 134 287 208 191 205 219 228 231 235 216 199 183 185 185 180 174 157 150 142 134 136 119 122 111 128 130 129 128 126
206 206 210 216 206 199 196 212 210 178 175 139 185 231 210 273 265 241 224 229 227 216 218 224 217 200 192 196 191 186 178 163 159 151 150 146 145 143 143 140 138 137 134
204 219 226 224 216 222 213 217 209 234 227 211 233 269 273 253 240 249 246 240 226 212 237 249 229 224 208 207 205 193 191 182 175 170 165 164 160 159 156 154 150 148 146
207 215 229 231 221 228 226 221 224 225 265 245 246 268 255 263 250 228 242 232 244 239 221 233 273 256 227 219 211 197 202 195 189 185 179 179 173 172 170 167 168 164 161
215 211 223 225 222 227 233 231 226 241 239 202 296 265 261 240 257 234 244 208 237 238 227 238 234 242 244 229 224 204 203 204 197 197 193 188 186 182 181 180 182 185 179
211 212 215 221 221 226 219 216 217 232 244 186 171 238 297 282 219 238 233 227 234 260 250 225 230 239 232 238 218 214 211 212 206 204 203 198 196 193 190 192 192 195 199
212 210 212 217 213 227 231 220 211 221 236 165 222 281 295 292 348 283 218 219 219 217 243 235 227 232 237 231 233 226 224 220 214 210 209 205 202 202 199 200 202 203 205
213 209 211 207 212 220 230 225 220 229 230 202 200 243 249 270 304 297 254 225 213 222 224 241 232 232 221 216 224 227 235 224 222 217 214 214 208 208 209 208 209 209 211
215 213 211 209 215 224 229 231 222 222 227 241 213 216 237 241 248 255 287 286 275 226 229 235 217 230 228 223 225 231 231 228 224 220 217 216 217 214 214 217 216 217 218
212 217 215 212 214 221 224 223 225 230 236 237 240 246 248 251 224 230 247 262 258 281 260 224 221 236 220 227 224 230 229 225 227 224 222 217 216 218 220 221 220 222 224
223 218 212 214 218 222 224 223 220 233 231 236 236 248 252 253 254 262 251 264 266 257 253 240 227 231 233 227 225 222 224 223 222 223 223 222 219 217 219 224 225 222 224
231 227 219 222 226 227 227 223 227 235 234 239 245 245 257 259 249 245 237 240 267 247 263 265 275 236 226 230 228 221 229 223 221 221 222 226 228 225 223 224 225 229 229
252 234 224 223 228 232 231 226 233 241 236 242 246 247 244 257 233 232 226 226 226 270 289 237 272 263 242 225 227 217 228 219 220 225 228 230 231 233 234 230 228 228 230
244 246 227 225 226 228 226 223 236 236 239 246 249 251 251 248 235 226 224 222 218 235 267 256 255 239 254 209 221 218 236 229 224 226 231 234 235 235 234 230 231 234 235
234 244 238 234 229 226 223 222 236 247 237 253 249 246 251 222 219 222 216 220 212 213 250 275 268 291 276 235 246 216 231 231 235 228 232 236 238 236 237 235 233 235 235
234 238 244 238 233 230 222 223 232 241 241 244 238 226 244 225 218 225 213 216 212 206 219 260 265 262 273 268 235 223 223 224 235 230 227 238 241 239 238 239 238 238 241
241 241 241 240 237 233 228 231 230 234 239 246 257 240 242 226 230 215 216 206 208 211 217 238 271 182 278 257 247 229 240 233 240 236 234 240 240 241 244 243 244 244 244
238 240 239 241 240 239 236 238 234 234 238 245 247 238 238 225 228 220 211 212 201 198 208 212 233 242 251 222 246 256 242 250 278 262 245 244 238 241 244 244 243 243 242
231 234 238 242 241 238 240 234 237 242 240 243 245 241 242 230 236 237 223 214 203 204 206 197 207 221 238 223 224 215 241 279 269 247 258 269 251 240 241 244 245 244 243
224 219 230 232 238 240 231 216 233 238 239 241 246 247 247 214 225 222 225 248 225 210 218 209 213 212 218 229 231 243 243 259 291 167 241 258 242 260 257 250 246 241 244
231 225 234 236 238 240 214 210 212 238 239 239 242 246 243 234 214 215 207 194 212 235 257 236 237 230 235 231 241 224 236 254 264 254 246 274 265 265 268 256 255 257 256
235 225 244 248 246 251 208 206 202 230 233 234 233 234 238 232 214 211 216 211 222 216 221 231 244 257 247 252 226 250 258 260 246 245 220 261 266 266 270 269 250 258 261
254 262 262 267 258 259 206 212 201 226 228 227 226 227 223 224 199 191 213 220 220 222 205 222 242 261 263 248 259 240 232 234 259 253 184 251 243 267 276 283 263 233 260
326 317 293 275 266 267 232 202 201 234 229 223 221 227 210 248 166 175 215 223 234 238 219 217 220 232 241 243 225 236 252 234 244 267 202 226 235 243 281 150 254 215 269